Wind_Speed
46 46 46 46 45 45 45 45 45 44 45 46 47 48 49 50 50 51 51 51 51 52 51 51 51 51 51 53 53 52 51 51 51 51 51 52 52 52
45 44 43 43 43 43 43 43 43 43 43 44 47 47 48 48 49 49 48 49 49 50 50 50 50 50 50 50 50 49 48 49 50 50 50 50 50 49
44 43 42 42 41 41 41 41 42 42 42 43 44 45 45 45 45 45 45 46 46 47 47 48 48 48 48 47 47 46 47 47 47 48 47 46 45 44
43 42 41 41 40 40 40 40 40 40 40 40 41 42 42 42 42 42 42 43 43 44 44 45 45 46 45 44 44 44 45 45 45 44 42 41 41 40
41 41 40 40 40 40 40 39 39 39 40 40 39 40 40 41 41 42 41 42 41 42 42 43 43 43 42 42 42 42 42 42 41 40 39 39 39 40
40 39 39 40 40 40 39 39 38 38 39 39 39 39 39 39 40 40 40 40 40 40 41 41 41 40 40 40 40 41 40 39 39 39 38 38 38 37
39 39 39 39 39 38 38 39 39 38 38 38 38 39 39 38 38 38 38 39 40 39 39 39 38 38 38 37 37 37 37 36 36 36 36 36 35 35
38 38 38 38 37 38 38 39 39 38 37 37 37 37 37 36 36 36 36 37 38 37 36 36 36 37 36 36 35 35 35 34 33 33 32 32 32 32
37 37 37 37 36 37 37 38 38 38 38 36 36 36 36 36 35 34 34 35 36 36 34 34 34 35 35 34 33 33 33 33 32 32 32 31 30 30
35 36 36 36 37 37 37 37 37 37 37 37 36 35 35 35 34 34 34 34 34 34 33 33 33 34 33 33 33 33 32 32 32 31 30 29 29 29
32 33 34 34 35 35 35 36 36 36 36 36 35 34 34 34 33 33 32 32 31 31 31 31 31 31 31 32 32 32 32 31 31 30 29 29 28 28
31 31 32 33 33 33 33 34 34 34 34 33 32 32 31 32 32 31 31 30 29 28 28 28 28 28 27 27 28 29 29 28 28 28 27 27 26 25
30 30 31 31 31 31 32 32 31 31 31 31 30 29 29 29 29 30 29 28 27 26 26 25 24 25 25 24 24 25 24 24 24 23 22 22 22 23
28 29 29 30 30 31 31 31 30 30 30 30 30 29 28 27 27 27 27 27 26 25 24 22 22 22 22 21 21 21 22 22 21 20 19 19 20 20
26 26 28 28 29 29 29 29 29 29 28 28 28 27 27 26 25 24 24 24 24 23 22 20 20 20 20 20 20 19 19 19 18 18 18 18 17 17
24 25 26 27 27 26 27 26 26 26 26 25 25 24 24 23 23 22 21 21 21 21 21 20 19 19 18 18 17 17 16 15 16 16 15 15 14 14
23 24 24 24 24 24 24 24 24 23 23 23 22 22 22 21 21 20 20 19 19 19 20 19 19 17 17 16 15 15 14 14 13 13 13 13 14 14
22 22 22 22 21 21 21 21 20 20 20 21 21 21 20 20 19 18 18 18 17 17 17 17 17 16 15 14 13 13 13 12 12 11 12 12 12 12
20 20 20 19 19 18 18 18 18 18 18 18 19 18 18 17 17 17 16 16 15 15 15 14 14 14 13 13 12 12 11 10 10 10 10 10 10 10
18 18 17 16 16 16 16 16 16 15 15 15 15 15 15 15 15 15 15 15 14 14 13 13 12 12 11 11 11 10 9 8 8 8 9 8 8 8
16 16 15 15 14 14 14 14 14 14 14 14 13 13 13 13 14 14 14 14 13 12 12 11 10 9 9 8 8 8 8 7 7 7 7 7 6 6
14 14 13 13 13 13 13 12 12 12 12 12 12 12 12 12 12 12 12 11 11 10 9 9 8 7 6 5 5 6 6 6 6 6 6 6 6 6
13 12 12 12 11 11 11 10 11 11 11 10 10 10 10 10 9 9 9 8 7 7 7 6 6 5 5 5 5 6 6 6 6 6 7 7 6 7
Wind_Direction
267 269 270 269 269 269 269 269 270 268 269 271 274 275 277 276 275 275 275 274 275 275 274 274 275 274 274 276 275 275 275 275 273 273 273 274 274 272
266 268 269 269 269 269 269 269 269 269 270 272 274 275 277 277 277 277 277 276 275 275 275 275 275 274 275 276 275 275 275 276 275 275 274 274 273 271
265 266 268 268 269 269 269 268 269 270 271 273 275 275 277 278 277 277 278 277 277 277 276 275 274 275 276 275 274 274 275 276 276 276 275 273 271 270
264 265 266 267 268 268 268 268 269 270 272 275 276 276 277 278 277 277 278 280 279 278 277 276 276 276 276 275 275 275 276 277 277 275 274 272 270 269
264 264 264 266 267 268 268 268 269 271 273 275 277 277 278 278 277 277 278 278 278 279 278 278 277 277 277 276 275 276 277 276 275 274 272 271 270 270
263 263 264 265 267 268 268 269 270 272 274 276 277 276 277 278 279 279 278 279 280 280 279 280 279 278 278 277 277 276 276 275 274 273 272 271 270 269
263 263 264 265 266 266 267 268 269 272 275 277 276 276 277 279 280 280 280 280 281 280 280 280 279 278 278 277 276 274 274 275 274 273 273 272 270 268
262 262 263 265 266 267 268 269 270 272 275 276 277 277 277 279 280 280 281 281 281 280 281 281 279 278 277 276 274 274 274 274 273 273 274 274 271 267
262 262 262 264 266 268 269 269 269 272 274 276 277 278 278 278 280 281 281 282 282 282 281 280 280 279 276 275 273 273 273 273 273 273 274 275 273 268
261 262 262 264 266 267 269 269 270 272 273 276 278 278 278 278 279 281 281 282 283 283 282 282 280 279 275 274 273 272 271 272 272 272 272 272 271 268
260 261 262 264 266 268 269 269 270 271 273 275 277 278 279 280 279 280 281 281 282 283 284 283 281 279 277 275 274 272 271 271 270 270 269 269 268 265
261 262 263 264 266 267 268 268 270 270 271 274 276 279 280 280 279 280 282 282 283 282 283 283 281 278 278 277 275 273 272 271 270 268 267 265 263 260
262 263 264 265 267 267 267 269 270 270 271 272 275 279 280 279 279 281 282 283 283 283 283 281 280 279 279 277 275 275 273 272 270 267 265 262 260 258
265 265 264 266 268 268 268 270 271 271 271 272 274 277 279 280 280 280 280 282 281 283 280 280 280 280 279 278 276 275 273 271 267 264 263 261 260 260
269 268 268 268 269 270 269 270 270 271 271 272 275 276 277 279 280 280 281 281 281 282 283 281 280 279 276 276 276 274 272 268 264 263 261 261 260 257
271 271 271 271 271 269 268 268 269 270 270 272 274 275 277 278 279 279 280 280 280 280 281 281 281 279 277 276 276 276 272 268 264 261 258 255 253 254
274 273 272 271 269 268 267 267 268 269 269 272 273 275 277 278 279 280 280 280 281 281 281 280 281 281 279 274 271 271 270 268 263 254 249 249 249 250
275 273 272 269 269 268 266 265 267 268 269 271 273 276 276 276 277 278 279 280 282 283 282 280 278 278 276 271 268 268 268 266 259 252 247 245 243 239
274 273 271 269 268 266 263 263 265 269 271 271 273 276 275 274 276 278 277 277 279 282 282 280 278 277 275 273 269 264 260 256 252 249 245 239 238 239
275 273 269 266 265 263 261 263 265 268 271 274 274 275 276 277 279 278 277 277 278 279 280 280 279 277 273 269 264 252 245 245 247 245 241 241 245 244
274 270 265 264 263 260 260 262 263 267 272 275 274 275 279 281 281 280 277 275 276 276 278 281 280 277 272 262 248 235 235 238 242 247 242 238 238 238
271 267 263 262 261 260 259 261 263 267 271 274 274 276 278 280 281 281 278 274 272 273 276 276 273 268 258 247 231 222 227 236 241 240 238 238 239 239
269 264 261 259 258 256 256 260 264 265 268 273 275 275 275 279 282 281 277 273 269 268 267 265 261 252 242 236 229 226 228 233 238 238 240 243 246 246
Height
5616 5617 5617 5618 5618 5618 5618 5619 5620 5621 5622 5621 5619 5617 5615 5615 5614 5612 5611 5611 5610 5609 5608 5608 5607 5607 5606 5605 5603 5602 5601 5601 5600 5599 5599 5598 5597 5597
5605 5605 5606 5606 5607 5607 5607 5607 5607 5608 5610 5610 5608 5606 5604 5603 5601 5600 5598 5598 5596 5596 5595 5594 5594 5593 5592 5590 5589 5588 5588 5587 5586 5585 5584 5583 5583 5583
5593 5594 5595 5596 5596 5596 5596 5596 5596 5597 5598 5598 5596 5595 5593 5592 5590 5588 5586 5585 5584 5583 5582 5581 5580 5579 5578 5577 5576 5575 5574 5573 5572 5571 5570 5569 5569 5570
5582 5583 5585 5585 5586 5586 5586 5586 5586 5586 5586 5586 5585 5584 5582 5581 5579 5577 5575 5573 5572 5571 5569 5568 5567 5566 5565 5564 5563 5562 5562 5560 5560 5558 5558 5558 5558 5558
5571 5572 5574 5574 5575 5575 5576 5576 5576 5576 5575 5575 5575 5573 5572 5570 5568 5567 5565 5563 5561 5559 5558 5556 5555 5554 5553 5552 5551 5550 5549 5549 5548 5547 5546 5546 5547 5547
5560 5561 5563 5564 5564 5565 5565 5565 5565 5565 5565 5565 5564 5562 5561 5559 5558 5556 5555 5552 5550 5549 5547 5545 5544 5542 5541 5540 5539 5538 5538 5537 5536 5536 5536 5536 5536 5537
5549 5551 5552 5553 5554 5554 5555 5555 5555 5555 5555 5554 5553 5552 5551 5549 5548 5546 5544 5543 5541 5538 5537 5535 5533 5532 5530 5528 5527 5527 5526 5526 5526 5526 5525 5525 5526 5527
5538 5540 5541 5542 5543 5543 5544 5544 5545 5545 5545 5544 5543 5542 5540 5539 5537 5535 5534 5533 5531 5529 5526 5525 5522 5521 5519 5518 5517 5517 5516 5516 5516 5516 5516 5516 5516 5517
5528 5529 5531 5532 5533 5533 5534 5534 5534 5534 5534 5533 5533 5531 5530 5529 5527 5526 5524 5522 5520 5518 5516 5515 5512 5510 5509 5508 5507 5507 5507 5507 5507 5507 5507 5507 5508 5508
5517 5519 5520 5521 5522 5523 5524 5524 5524 5524 5523 5523 5522 5521 5520 5518 5517 5515 5514 5513 5511 5508 5506 5505 5502 5500 5499 5498 5497 5497 5497 5497 5498 5498 5499 5499 5500 5500
5507 5509 5510 5512 5513 5513 5514 5514 5514 5514 5513 5512 5512 5511 5509 5508 5507 5505 5504 5503 5502 5499 5496 5495 5493 5491 5490 5489 5488 5487 5488 5488 5489 5490 5490 5491 5492 5493
5499 5500 5501 5502 5503 5503 5504 5504 5505 5504 5504 5503 5502 5501 5500 5498 5497 5496 5494 5493 5492 5491 5488 5486 5484 5483 5482 5481 5480 5479 5479 5480 5481 5482 5482 5483 5484 5485
5490 5491 5492 5492 5493 5493 5494 5495 5495 5495 5495 5495 5494 5492 5491 5490 5488 5486 5485 5484 5483 5482 5480 5479 5477 5475 5475 5474 5473 5473 5473 5473 5473 5474 5475 5475 5477 5478
5482 5482 5483 5483 5484 5484 5485 5485 5486 5486 5486 5486 5485 5484 5483 5481 5480 5478 5477 5476 5475 5474 5472 5471 5470 5469 5469 5468 5468 5468 5467 5467 5467 5468 5468 5469 5470 5472
5474 5474 5474 5475 5475 5475 5476 5476 5477 5477 5477 5477 5477 5476 5475 5474 5473 5471 5470 5469 5468 5467 5466 5465 5464 5464 5463 5463 5463 5462 5462 5462 5462 5462 5463 5464 5465 5467
5467 5466 5467 5467 5467 5467 5468 5469 5469 5469 5469 5470 5469 5469 5468 5467 5466 5465 5464 5464 5463 5462 5461 5460 5459 5459 5458 5458 5458 5458 5457 5457 5458 5458 5459 5460 5462 5463
5459 5460 5460 5460 5460 5460 5461 5461 5462 5462 5462 5462 5462 5462 5462 5461 5460 5460 5459 5458 5458 5457 5456 5455 5454 5454 5454 5454 5454 5454 5453 5453 5454 5455 5456 5458 5459 5461
5453 5453 5453 5453 5453 5453 5453 5454 5455 5455 5456 5456 5456 5456 5456 5455 5455 5455 5454 5454 5453 5452 5451 5451 5450 5450 5450 5450 5451 5450 5450 5450 5451 5452 5453 5455 5456 5457
5447 5447 5447 5447 5447 5447 5447 5448 5449 5450 5450 5450 5451 5451 5450 5450 5450 5450 5450 5449 5449 5448 5447 5447 5447 5447 5447 5447 5447 5447 5448 5448 5448 5450 5451 5452 5454 5455
5442 5441 5441 5441 5442 5442 5443 5443 5444 5445 5445 5446 5446 5446 5446 5446 5446 5445 5445 5445 5445 5444 5444 5444 5444 5443 5443 5444 5444 5444 5445 5446 5447 5448 5449 5451 5452 5453
5437 5437 5437 5437 5438 5438 5439 5439 5440 5441 5441 5441 5442 5442 5442 5441 5441 5441 5441 5441 5441 5441 5441 5441 5441 5440 5440 5441 5442 5442 5443 5444 5446 5447 5448 5450 5451 5451
5433 5433 5433 5433 5434 5435 5435 5436 5437 5437 5438 5438 5438 5438 5438 5438 5438 5437 5438 5438 5438 5438 5438 5438 5438 5438 5439 5440 5440 5441 5442 5443 5444 5445 5447 5449 5449 5450
5429 5429 5429 5430 5431 5431 5432 5433 5433 5434 5434 5435 5435 5435 5435 5435 5434 5435 5435 5435 5435 5435 5435 5436 5436 5437 5438 5439 5440 5440 5441 5443 5444 5445 5446 5446 5447 5448